| time (UTC) | temp F | wind direction | speed MPH | gust MPH | rain 1hr in | rain 24hr in | rain mn in | humidity % | barometer mb |
| 20260505005009 | 58 | 0 | 0.0 | 1.0 | 0.00 | 0.00 | 0.00 | 53 | 1006.4 |
| 20260505004539 | 59 | 0 | 0.0 | 0.0 | 0.00 | 0.00 | 0.00 | 52 | 1006.3 |
| 20260505004010 | 59 | 0 | 0.0 | 0.0 | 0.00 | 0.00 | 0.00 | 51 | 1006.3 |
| 20260505003510 | 60 | 0 | 0.0 | 0.0 | 0.00 | 0.00 | 0.00 | 50 | 1006.3 |
| 20260505003028 | 61 | 0 | 0.0 | 0.0 | 0.00 | 0.00 | 0.00 | 49 | 1006.1 |
| 20260505002508 | 61 | 0 | 0.0 | 0.0 | 0.00 | 0.00 | 0.00 | 48 | 1006.0 |
| 20260505002010 | 62 | 0 | 0.0 | 0.0 | 0.00 | 0.00 | 0.00 | 47 | 1005.9 |
| 20260505001526 | 63 | 0 | 0.0 | 0.0 | 0.00 | 0.00 | 0.00 | 46 | 1005.8 |
| 20260505001013 | 63 | 0 | 0.0 | 0.0 | 0.00 | 0.00 | 0.00 | 45 | 1005.7 |
| 20260505000507 | 64 | 0 | 0.0 | 0.0 | 0.00 | 0.00 | 0.00 | 43 | 1005.7 |
| 20260505000027 | 64 | 0 | 0.0 | 0.0 | 0.00 | 0.00 | 0.00 | 43 | 1005.5 |
| 20260504235508 | 65 | 0 | 0.0 | 0.0 | 0.00 | 0.00 | 0.00 | 41 | 1005.5 |
| 20260504235010 | 66 | 0 | 0.0 | 0.0 | 0.00 | 0.00 | 0.00 | 40 | 1005.5 |
| 20260504234533 | 66 | 0 | 0.0 | 2.0 | 0.00 | 0.00 | 0.00 | 38 | 1005.5 |
| 20260504234008 | 67 | 0 | 0.0 | 2.0 | 0.00 | 0.00 | 0.00 | 37 | 1005.5 |
| 20260504233509 | 68 | 0 | 0.0 | 2.0 | 0.00 | 0.00 | 0.00 | 37 | 1005.5 |
| 20260504233029 | 68 | 0 | 0.0 | 2.0 | 0.00 | 0.00 | 0.00 | 35 | 1005.3 |
| 20260504232511 | 68 | 281 | 0.0 | 2.0 | 0.00 | 0.00 | 0.00 | 35 | 1005.3 |
| 20260504232008 | 69 | 0 | 0.0 | 5.0 | 0.00 | 0.00 | 0.00 | 34 | 1005.1 |
| 20260504231538 | 69 | 0 | 0.0 | 5.0 | 0.00 | 0.00 | 0.00 | 34 | 1005.0 |
| 20260504231010 | 69 | 0 | 0.0 | 5.0 | 0.00 | 0.00 | 0.00 | 33 | 1005.0 |
| 20260504230509 | 69 | 234 | 1.0 | 9.0 | 0.00 | 0.00 | 0.00 | 33 | 1004.8 |
| 20260504230028 | 70 | 0 | 2.0 | 9.0 | 0.00 | 0.00 | 0.00 | 32 | 1004.8 |
| 20260504225513 | 70 | 256 | 1.0 | 7.0 | 0.00 | 0.00 | 0.00 | 32 | 1004.9 |
| 20260504225011 | 70 | 200 | 1.0 | 7.0 | 0.00 | 0.00 | 0.00 | 32 | 1004.8 |
| 20260504224528 | 69 | 0 | 1.0 | 7.0 | 0.00 | 0.00 | 0.00 | 33 | 1004.8 |
| 20260504224009 | 70 | 245 | 0.0 | 7.0 | 0.00 | 0.00 | 0.00 | 33 | 1004.7 |
| 20260504223510 | 70 | 219 | 2.0 | 7.0 | 0.00 | 0.00 | 0.00 | 32 | 1004.8 |
| 20260504223028 | 70 | 237 | 1.0 | 5.0 | 0.00 | 0.00 | 0.00 | 32 | 1004.7 |
| 20260504222512 | 70 | 227 | 0.0 | 6.0 | 0.00 | 0.00 | 0.00 | 32 | 1004.6 |
| 20260504222011 | 70 | 225 | 1.0 | 6.0 | 0.00 | 0.00 | 0.00 | 32 | 1004.5 |
| 20260504221526 | 70 | 0 | 1.0 | 6.0 | 0.00 | 0.00 | 0.00 | 31 | 1004.5 |
| 20260504221009 | 71 | 38 | 1.0 | 5.0 | 0.00 | 0.00 | 0.00 | 31 | 1004.6 |
| 20260504220028 | 71 | 205 | 2.0 | 9.0 | 0.00 | 0.00 | 0.00 | 31 | 1004.5 |
| 20260504215513 | 71 | 105 | 1.0 | 9.0 | 0.00 | 0.00 | 0.00 | 32 | 1004.5 |
| 20260504215012 | 71 | 28 | 1.0 | 7.0 | 0.00 | 0.00 | 0.00 | 31 | 1004.3 |
| 20260504214534 | 71 | 0 | 0.0 | 7.0 | 0.00 | 0.00 | 0.00 | 33 | 1004.6 |
| 20260504214012 | 71 | 265 | 2.0 | 7.0 | 0.00 | 0.00 | 0.00 | 32 | 1004.5 |
| 20260504213511 | 71 | 315 | 1.0 | 8.0 | 0.00 | 0.00 | 0.00 | 31 | 1004.6 |
| 20260504213030 | 72 | 299 | 2.0 | 8.0 | 0.00 | 0.00 | 0.00 | 30 | 1004.5 |
| 20260504212511 | 72 | 245 | 2.0 | 10.0 | 0.00 | 0.00 | 0.00 | 30 | 1004.5 |
| 20260504212011 | 72 | 189 | 2.0 | 10.0 | 0.00 | 0.00 | 0.00 | 30 | 1004.4 |
| 20260504211524 | 72 | 233 | 4.0 | 10.0 | 0.00 | 0.00 | 0.00 | 30 | 1004.5 |
| 20260504211010 | 71 | 264 | 2.0 | 9.0 | 0.00 | 0.00 | 0.00 | 30 | 1004.4 |
| 20260504210513 | 71 | 246 | 3.0 | 9.0 | 0.00 | 0.00 | 0.00 | 31 | 1004.4 |
| 20260504210026 | 71 | 214 | 2.0 | 12.0 | 0.00 | 0.00 | 0.00 | 30 | 1004.4 |
| 20260504205012 | 72 | 0 | 2.0 | 8.0 | 0.00 | 0.00 | 0.00 | 31 | 1004.3 |
| 20260504204551 | 72 | 279 | 3.0 | 8.0 | 0.00 | 0.00 | 0.00 | 30 | 1004.3 |
| 20260504204012 | 72 | 123 | 2.0 | 11.0 | 0.00 | 0.00 | 0.00 | 30 | 1004.4 |
| 20260504203514 | 72 | 258 | 3.0 | 11.0 | 0.00 | 0.00 | 0.00 | 31 | 1004.3 |
| 20260504203030 | 72 | 187 | 3.0 | 12.0 | 0.00 | 0.00 | 0.00 | 30 | 1004.5 |
| 20260504202510 | 72 | 128 | 3.0 | 14.0 | 0.00 | 0.00 | 0.00 | 30 | 1004.4 |
| 20260504202011 | 73 | 111 | 5.0 | 14.0 | 0.00 | 0.00 | 0.00 | 29 | 1004.5 |
| 20260504201525 | 73 | 227 | 3.0 | 9.0 | 0.00 | 0.00 | 0.00 | 29 | 1004.4 |
| 20260504201010 | 73 | 360 | 3.0 | 13.0 | 0.00 | 0.00 | 0.00 | 29 | 1004.3 |
| 20260504200511 | 73 | 207 | 3.0 | 13.0 | 0.00 | 0.00 | 0.00 | 29 | 1004.2 |
| 20260504200030 | 72 | 254 | 4.0 | 13.0 | 0.00 | 0.00 | 0.00 | 29 | 1004.4 |
| 20260504195512 | 72 | 234 | 5.0 | 11.0 | 0.00 | 0.00 | 0.00 | 29 | 1004.4 |
| 20260504195007 | 71 | 132 | 4.0 | 12.0 | 0.00 | 0.00 | 0.00 | 30 | 1004.5 |
| 20260504194530 | 71 | 142 | 3.0 | 17.0 | 0.00 | 0.00 | 0.00 | 31 | 1004.3 |
| 20260504194011 | 71 | 209 | 3.0 | 17.0 | 0.00 | 0.00 | 0.00 | 31 | 1004.5 |
| 20260504193507 | 71 | 202 | 5.0 | 17.0 | 0.00 | 0.00 | 0.00 | 30 | 1004.5 |
| 20260504193028 | 70 | 188 | 3.0 | 12.0 | 0.00 | 0.00 | 0.00 | 30 | 1004.4 |
| 20260504192511 | 70 | 215 | 5.0 | 12.0 | 0.00 | 0.00 | 0.00 | 31 | 1004.6 |
| 20260504192012 | 69 | 252 | 2.0 | 11.0 | 0.00 | 0.00 | 0.00 | 32 | 1004.6 |
| 20260504191529 | 69 | 347 | 3.0 | 14.0 | 0.00 | 0.00 | 0.00 | 32 | 1004.8 |
| 20260504191011 | 69 | 234 | 3.0 | 16.0 | 0.00 | 0.00 | 0.00 | 32 | 1004.9 |
| 20260504190511 | 69 | 249 | 4.0 | 16.0 | 0.00 | 0.00 | 0.00 | 32 | 1004.9 |
| 20260504190034 | 69 | 209 | 2.0 | 10.0 | 0.00 | 0.00 | 0.00 | 32 | 1004.7 |
| 20260504185514 | 69 | 227 | 1.0 | 10.0 | 0.00 | 0.00 | 0.00 | 32 | 1004.8 |
| 20260504185012 | 68 | 216 | 3.0 | 11.0 | 0.00 | 0.00 | 0.00 | 32 | 1004.8 |
| 20260504184527 | 68 | 248 | 2.0 | 11.0 | 0.00 | 0.00 | 0.00 | 31 | 1004.9 |
| 20260504184017 | 68 | 256 | 3.0 | 12.0 | 0.00 | 0.00 | 0.00 | 31 | 1004.7 |
| 20260504183030 | 68 | 200 | 3.0 | 15.0 | 0.00 | 0.00 | 0.00 | 32 | 1004.8 |
| 20260504182507 | 69 | 202 | 3.0 | 15.0 | 0.00 | 0.00 | 0.00 | 31 | 1004.7 |
| 20260504182013 | 69 | 148 | 3.0 | 11.0 | 0.00 | 0.00 | 0.00 | 32 | 1004.8 |
| 20260504181526 | 69 | 232 | 3.0 | 15.0 | 0.00 | 0.00 | 0.00 | 30 | 1004.7 |
| 20260504181011 | 70 | 250 | 5.0 | 15.0 | 0.00 | 0.00 | 0.00 | 30 | 1004.8 |
| 20260504180512 | 69 | 210 | 3.0 | 9.0 | 0.00 | 0.00 | 0.00 | 30 | 1004.6 |
| 20260504180028 | 69 | 238 | 2.0 | 15.0 | 0.00 | 0.00 | 0.00 | 32 | 1004.6 |
| 20260504175511 | 69 | 205 | 4.0 | 15.0 | 0.00 | 0.00 | 0.00 | 30 | 1004.7 |
| 20260504175011 | 69 | 244 | 5.0 | 15.0 | 0.00 | 0.00 | 0.00 | 29 | 1004.7 |
| 20260504174526 | 70 | 140 | 5.0 | 14.0 | 0.00 | 0.00 | 0.00 | 28 | 1004.7 |
| 20260504174012 | 69 | 209 | 3.0 | 13.0 | 0.00 | 0.00 | 0.00 | 30 | 1004.8 |
| 20260504173508 | 69 | 281 | 3.0 | 11.0 | 0.00 | 0.00 | 0.00 | 29 | 1005.0 |
| 20260504173028 | 70 | 289 | 4.0 | 17.0 | 0.00 | 0.00 | 0.00 | 28 | 1005.0 |
| 20260504171539 | 71 | 221 | 6.0 | 16.0 | 0.00 | 0.00 | 0.00 | 27 | 1005.1 |
| 20260504171011 | 71 | 351 | 5.0 | 17.0 | 0.00 | 0.00 | 0.00 | 28 | 1005.0 |
| 20260504170508 | 71 | 204 | 4.0 | 17.0 | 0.00 | 0.00 | 0.00 | 30 | 1005.0 |
| 20260504151011 | 65 | 273 | 3.0 | 10.0 | 0.00 | 0.00 | 0.00 | 39 | 1006.2 |
| 20260504150515 | 65 | 225 | 2.0 | 8.0 | 0.00 | 0.00 | 0.00 | 39 | 1006.4 |
| 20260504141013 | 61 | 191 | 2.0 | 11.0 | 0.00 | 0.00 | 0.00 | 44 | 1007.3 |
| 20260504140517 | 60 | 206 | 3.0 | 16.0 | 0.00 | 0.00 | 0.00 | 44 | 1007.4 |
| 20260504130510 | 56 | 198 | 2.0 | 6.0 | 0.00 | 0.00 | 0.00 | 50 | 1008.0 |
| 20260504110509 | 46 | 197 | 2.0 | 9.0 | 0.00 | 0.00 | 0.00 | 64 | 1008.7 |
| 20260504100510 | 37 | 0 | 0.0 | 0.0 | 0.00 | 0.00 | 0.00 | 80 | 1008.6 |
| 20260504082007 | 38 | 0 | 0.0 | 0.0 | 0.00 | 0.00 | 0.00 | 77 | 1008.6 |
| 20260504081530 | 38 | 0 | 0.0 | 1.0 | 0.00 | 0.00 | 0.00 | 77 | 1008.7 |
| 20260504081009 | 38 | 0 | 0.0 | 2.0 | 0.00 | 0.00 | 0.00 | 78 | 1008.6 |
| 20260504080512 | 38 | 267 | 0.0 | 2.0 | 0.00 | 0.00 | 0.00 | 79 | 1008.7 |
| 20260504050508 | 34 | 0 | 0.0 | 1.0 | 0.00 | 0.00 | 0.00 | 84 | 1008.6 |
| 20260504045511 | 34 | 0 | 0.0 | 1.0 | 0.00 | 0.00 | 0.00 | 83 | 1008.5 |
| 20260504045008 | 34 | 0 | 0.0 | 1.0 | 0.00 | 0.00 | 0.00 | 83 | 1008.4 |
| 20260504044539 | 34 | 0 | 0.0 | 1.0 | 0.00 | 0.00 | 0.00 | 83 | 1008.5 |
| 20260504044013 | 34 | 0 | 0.0 | 1.0 | 0.00 | 0.00 | 0.00 | 83 | 1008.5 |
| 20260504043510 | 34 | 0 | 0.0 | 1.0 | 0.00 | 0.00 | 0.00 | 83 | 1008.5 |
| 20260504043030 | 34 | 0 | 0.0 | 1.0 | 0.00 | 0.00 | 0.00 | 83 | 1008.4 |
| 20260504042509 | 34 | 0 | 0.0 | 1.0 | 0.00 | 0.00 | 0.00 | 83 | 1008.6 |
| 20260504042008 | 34 | 0 | 0.0 | 1.0 | 0.00 | 0.00 | 0.00 | 83 | 1008.4 |
| 20260504041530 | 34 | 0 | 0.0 | 1.0 | 0.00 | 0.00 | 0.00 | 83 | 1008.4 |
| 20260504041013 | 34 | 0 | 0.0 | 0.0 | 0.00 | 0.00 | 0.00 | 82 | 1008.3 |
| 20260504040513 | 35 | 0 | 0.0 | 0.0 | 0.00 | 0.00 | 0.00 | 82 | 1008.3 |
| 20260504040028 | 35 | 0 | 0.0 | 0.0 | 0.00 | 0.00 | 0.00 | 82 | 1008.3 |
| 20260504035510 | 35 | 0 | 0.0 | 0.0 | 0.00 | 0.00 | 0.00 | 82 | 1008.3 |
| 20260504035011 | 35 | 0 | 0.0 | 0.0 | 0.00 | 0.00 | 0.00 | 82 | 1008.2 |
| 20260504034528 | 35 | 0 | 0.0 | 0.0 | 0.00 | 0.00 | 0.00 | 81 | 1008.2 |
| 20260504034008 | 35 | 0 | 0.0 | 1.0 | 0.00 | 0.00 | 0.00 | 81 | 1008.1 |
| 20260504033512 | 36 | 0 | 0.0 | 1.0 | 0.00 | 0.00 | 0.00 | 81 | 1008.2 |
| 20260504033031 | 36 | 0 | 0.0 | 1.0 | 0.00 | 0.00 | 0.00 | 81 | 1008.2 |
| 20260504032508 | 36 | 0 | 0.0 | 1.0 | 0.00 | 0.00 | 0.00 | 81 | 1008.1 |
| 20260504032015 | 36 | 0 | 0.0 | 1.0 | 0.00 | 0.00 | 0.00 | 80 | 1008.0 |
| 20260504031530 | 36 | 0 | 0.0 | 1.0 | 0.00 | 0.00 | 0.00 | 80 | 1008.1 |
| 20260504031010 | 36 | 0 | 0.0 | 1.0 | 0.00 | 0.00 | 0.00 | 79 | 1007.8 |
| 20260504030510 | 37 | 0 | 0.0 | 0.0 | 0.00 | 0.00 | 0.00 | 79 | 1007.9 |
| 20260504030038 | 37 | 0 | 0.0 | 0.0 | 0.00 | 0.00 | 0.00 | 78 | 1007.9 |
| 20260504025509 | 37 | 0 | 0.0 | 0.0 | 0.00 | 0.03 | 0.00 | 78 | 1007.9 |
| 20260504025013 | 37 | 0 | 0.0 | 0.0 | 0.00 | 0.03 | 0.00 | 77 | 1007.9 |
| 20260504024617 | 38 | 0 | 0.0 | 1.0 | 0.00 | 0.03 | 0.00 | 77 | 1007.9 |
| 20260504024009 | 38 | 0 | 0.0 | 1.0 | 0.00 | 0.03 | 0.00 | 76 | 1007.9 |
| 20260504023510 | 38 | 0 | 0.0 | 1.0 | 0.00 | 0.03 | 0.00 | 75 | 1007.9 |
| 20260504023032 | 38 | 0 | 0.0 | 1.0 | 0.00 | 0.03 | 0.00 | 74 | 1007.9 |
| 20260504022507 | 39 | 0 | 0.0 | 1.0 | 0.00 | 0.03 | 0.00 | 74 | 1007.9 |
| 20260504022008 | 39 | 0 | 0.0 | 1.0 | 0.00 | 0.03 | 0.00 | 73 | 1007.9 |
| 20260504021533 | 39 | 0 | 0.0 | 0.0 | 0.00 | 0.03 | 0.00 | 72 | 1007.9 |
| 20260504021008 | 40 | 0 | 0.0 | 0.0 | 0.00 | 0.03 | 0.00 | 70 | 1007.9 |
| 20260504020508 | 40 | 0 | 0.0 | 0.0 | 0.00 | 0.03 | 0.00 | 69 | 1007.9 |
| 20260504020030 | 40 | 0 | 0.0 | 0.0 | 0.00 | 0.03 | 0.00 | 68 | 1008.0 |
| 20260504015511 | 41 | 0 | 0.0 | 0.0 | 0.00 | 0.04 | 0.00 | 67 | 1008.0 |
| 20260504015011 | 41 | 0 | 0.0 | 0.0 | 0.00 | 0.04 | 0.00 | 66 | 1008.0 |
| 20260504014528 | 41 | 0 | 0.0 | 0.0 | 0.00 | 0.04 | 0.00 | 65 | 1008.0 |
| 20260504014011 | 42 | 0 | 0.0 | 0.0 | 0.00 | 0.04 | 0.00 | 64 | 1008.0 |
| 20260504013509 | 42 | 0 | 0.0 | 0.0 | 0.00 | 0.04 | 0.00 | 63 | 1008.0 |
| 20260504013028 | 42 | 0 | 0.0 | 0.0 | 0.00 | 0.04 | 0.00 | 63 | 1008.0 |
| 20260504012510 | 43 | 0 | 0.0 | 0.0 | 0.00 | 0.04 | 0.00 | 62 | 1008.1 |
| 20260504012015 | 43 | 0 | 0.0 | 1.0 | 0.00 | 0.04 | 0.00 | 61 | 1007.9 |
| 20260504011531 | 44 | 0 | 0.0 | 1.0 | 0.00 | 0.04 | 0.00 | 60 | 1007.8 |
| 20260504011007 | 44 | 0 | 0.0 | 1.0 | 0.00 | 0.04 | 0.00 | 58 | 1007.9 |
| 20260504010507 | 45 | 0 | 0.0 | 1.0 | 0.00 | 0.04 | 0.00 | 57 | 1007.7 |
| 20260504010030 | 45 | 0 | 0.0 | 2.0 | 0.00 | 0.04 | 0.00 | 55 | 1007.6 |
| 20260504005507 | 45 | 0 | 0.0 | 2.0 | 0.00 | 0.04 | 0.00 | 55 | 1007.5 |